Temperature
17 17 17 17 17 17 17 17 17 17 17 18 18 18 18 18 18 18 18 18 18 18 18 18 18 18 18 18 18 18 18 18 18 18 18 18 18 18 18 18 18 18 18
17 17 17 17 17 17 17 17 17 17 17 17 17 18 17 17 17 18 18 18 18 18 18 18 18 18 18 18 18 18 18 18 18 18 18 18 18 18 18 18 18 18 18
17 17 17 17 17 17 17 17 17 17 17 17 17 17 17 17 17 17 17 17 17 17 17 17 17 17 18 18 18 17 18 18 18 18 18 18 18 18 18 18 18 18 18
17 17 17 17 17 17 17 17 17 17 17 17 17 17 17 17 17 17 17 17 17 17 17 17 17 17 17 17 17 17 17 17 17 17 17 17 17 17 17 18 17 17 17
17 17 17 17 17 17 17 17 17 17 17 17 17 17 17 17 17 17 17 17 17 17 17 17 17 17 17 17 17 17 17 17 17 17 17 17 17 17 17 17 17 17 17
17 17 17 17 17 17 17 17 17 17 17 17 17 17 17 17 17 17 17 17 17 17 17 17 17 17 17 17 17 17 17 17 17 17 17 17 17 17 17 17 17 17 17
17 17 17 17 17 17 17 17 17 17 17 17 17 17 17 17 16 17 17 17 17 16 16 17 16 17 16 16 16 16 16 17 17 17 17 17 17 17 17 17 17 17 17
17 17 17 17 16 17 17 16 17 16 16 16 16 16 16 16 16 16 16 16 16 16 16 16 16 16 16 16 16 16 16 16 16 17 17 17 17 17 17 16 16 16 17
17 17 17 16 16 16 16 16 16 16 16 16 16 16 16 16 16 16 16 16 16 16 16 16 16 16 16 16 16 16 16 16 16 16 16 16 16 16 16 16 16 16 16
17 17 17 16 16 16 16 16 16 16 16 16 16 16 16 16 16 16 16 16 16 16 16 16 16 16 16 16 16 16 16 16 16 16 16 16 16 16 16 16 16 16 16
17 17 17 16 16 16 16 16 16 16 16 16 16 16 16 16 16 16 16 16 16 16 16 16 16 16 16 15 16 16 16 16 16 16 16 16 16 15 15 16 16 16 16
17 17 17 17 16 16 16 16 16 16 16 16 16 16 16 16 16 16 16 16 16 15 15 15 15 15 15 15 15 15 15 15 15 15 15 15 15 15 15 15 16 16 16
17 17 17 17 16 16 16 16 16 16 16 16 16 16 16 16 16 16 16 15 15 15 15 15 15 15 15 15 15 15 15 15 15 15 15 15 15 15 15 15 15 15 15
17 17 17 17 17 16 16 16 16 16 16 16 16 16 16 16 16 15 15 15 15 15 15 15 15 15 15 15 15 15 15 15 15 15 15 15 15 15 15 15 15 15 15
17 17 17 17 17 17 16 16 16 16 16 16 16 16 15 15 15 15 15 15 15 15 15 15 15 15 15 15 15 15 15 15 15 15 15 15 15 15 15 15 15 15 14
18 17 17 17 17 16 16 16 16 16 16 16 16 15 15 15 15 15 15 15 15 15 15 15 15 15 15 15 15 14 14 14 14 14 14 14 14 14 14 14 14 14 14
18 18 17 17 17 17 16 16 16 16 16 16 16 15 15 15 15 15 15 15 15 15 15 15 15 15 15 14 14 14 14 14 14 14 14 14 14 14 14 14 14 14 14
18 18 17 17 17 17 16 16 16 16 16 16 16 15 15 15 15 15 15 15 15 15 15 15 14 15 14 14 14 14 14 14 14 14 14 14 14 14 14 14 14 13 13
18 18 17 17 17 17 16 16 16 16 16 16 15 15 15 15 15 15 15 15 15 15 14 14 14 14 14 14 14 14 14 14 14 14 14 14 14 14 14 14 14 13 13
18 17 17 17 17 17 16 16 16 16 16 16 15 15 15 15 15 15 15 15 15 15 14 14 14 14 14 14 14 14 14 14 14 13 13 13 13 13 13 13 13 13 13
17 17 17 17 17 16 16 16 16 16 16 15 15 15 15 15 15 15 15 15 14 14 14 14 14 14 14 14 14 14 14 13 13 13 13 13 13 13 13 13 13 13 13
17 17 17 17 17 16 16 16 16 16 15 15 15 15 15 15 15 15 15 15 14 14 14 14 14 14 14 14 14 14 13 13 13 13 13 13 13 13 13 13 13 13 13
17 17 17 17 16 16 16 16 16 15 15 15 15 15 15 15 15 15 15 14 14 14 14 14 14 14 14 14 14 14 13 13 13 13 13 13 13 13 13 13 13 13 13
17 17 17 16 16 16 16 16 16 16 15 15 15 15 15 15 15 15 14 14 14 14 14 14 14 14 14 14 14 14 14 13 13 13 12 13 13 13 13 13 13 13 13
17 17 16 16 16 16 16 16 15 15 15 15 15 15 15 15 15 15 14 14 14 14 14 14 14 14 14 14 14 14 14 13 13 13 13 13 13 12 12 13 13 13 13
17 16 16 16 16 16 16 15 15 15 15 15 15 15 15 15 15 15 14 14 14 14 14 14 14 14 14 14 14 14 14 14 14 13 13 13 12 12 12 12 12 13 13
Wind_Speed
3 4 5 5 6 7 8 9 9 9 10 10 10 10 11 11 11 11 11 12 12 13 13 13 12 12 13 13 12 12 13 13 12 11 10 10 11 11 11 11 10 8 10
1 2 3 5 6 7 7 8 9 9 9 10 10 10 10 10 11 11 11 12 12 12 13 13 13 13 13 13 13 13 13 13 12 11 10 10 11 12 12 11 11 9 11
1 1 2 5 6 7 7 8 8 9 9 9 10 9 10 11 11 11 11 12 12 12 12 13 12 12 12 13 14 14 14 13 13 12 11 8 9 11 11 11 11 11 11
2 1 2 5 6 7 7 7 8 8 8 9 9 9 10 10 10 10 10 11 12 12 12 12 12 12 12 14 14 15 15 14 13 12 10 9 8 11 11 11 11 11 11
2 2 2 5 6 6 7 7 7 7 8 8 9 9 9 9 10 10 10 11 12 12 12 13 12 12 13 14 15 15 15 15 14 12 11 10 9 11 12 12 12 12 11
1 1 2 5 6 6 6 7 7 7 7 8 8 8 9 9 9 10 11 11 12 12 13 13 14 15 15 15 15 15 15 15 13 11 11 10 10 12 12 12 12 12 12
1 1 2 4 5 6 6 6 7 7 7 8 8 8 8 9 9 10 10 11 12 13 14 14 15 16 17 16 15 15 15 14 12 10 10 10 11 12 12 12 12 11 11
2 1 2 3 4 5 6 6 6 7 7 8 8 8 9 9 9 10 10 11 12 13 14 15 16 16 16 15 15 15 15 13 11 10 10 10 12 12 13 12 12 11 11
2 2 3 3 4 4 5 5 6 7 7 8 8 8 9 9 9 10 11 11 12 13 14 15 15 16 15 15 15 15 14 14 11 9 9 9 12 12 12 12 12 12 11
2 2 2 3 4 4 5 6 6 6 7 7 8 8 9 9 9 10 10 11 12 13 14 14 15 15 15 16 15 15 14 13 11 10 8 9 12 12 12 11 12 12 11
0 1 1 2 3 3 4 5 6 6 7 8 8 8 9 8 8 8 10 12 12 12 13 14 14 15 15 15 15 14 13 10 10 9 9 10 11 11 11 11 11 11 11
2 1 0 1 1 2 3 4 5 5 6 7 7 7 7 8 8 8 10 11 12 12 13 13 14 14 13 11 12 12 10 10 9 8 9 10 10 11 11 11 11 11 11
2 1 0 0 1 2 2 3 3 4 5 5 6 6 7 7 7 8 7 8 9 10 10 11 11 10 10 9 9 9 9 9 8 8 9 10 10 10 10 10 10 10 10
2 2 1 1 1 1 2 2 2 2 2 3 4 6 6 4 5 5 5 6 6 7 8 8 8 9 10 10 9 9 9 8 8 8 9 11 10 10 10 9 9 9 9
3 3 2 2 2 1 2 1 2 2 2 3 4 5 6 4 3 4 4 5 6 7 6 6 7 7 7 8 8 8 8 8 9 9 9 11 11 10 10 10 9 9 9
3 3 2 2 2 2 2 1 1 2 3 3 4 4 5 4 3 3 4 4 5 6 6 6 6 6 6 6 7 7 7 8 8 9 9 10 12 11 10 9 9 8 8
3 3 2 3 2 2 2 1 2 2 3 3 3 4 5 4 4 4 3 3 4 6 7 7 6 6 5 5 5 6 6 7 7 8 9 9 9 11 11 10 9 9 8
4 3 2 3 3 2 2 2 2 2 3 2 3 4 4 4 5 5 3 3 5 6 5 4 4 5 4 4 4 4 5 5 6 7 8 8 8 8 10 10 9 8 8
4 4 3 2 3 2 2 2 2 3 3 3 3 3 4 5 5 5 3 4 6 5 4 4 3 4 4 4 4 4 4 4 5 5 6 7 7 8 8 9 9 8 8
3 3 3 2 2 3 2 2 2 3 2 2 3 3 4 5 6 6 4 4 5 4 3 3 4 4 3 3 5 5 4 4 4 4 5 5 6 7 7 7 7 7 8
3 3 3 3 2 3 2 2 2 1 1 2 2 3 4 4 5 6 4 4 4 3 3 4 4 4 3 2 3 3 4 4 4 4 4 4 5 5 6 7 6 6 6
4 4 3 3 3 3 2 2 2 2 1 1 1 3 3 3 4 5 5 3 3 3 4 3 3 3 1 1 2 2 2 4 4 4 3 3 4 4 5 5 6 6 6
4 5 5 4 4 3 3 3 3 3 3 2 2 2 1 2 3 4 5 4 4 4 4 3 3 4 2 0 1 3 3 1 1 3 3 3 3 3 3 4 5 5 5
4 4 4 4 4 3 4 5 5 3 2 1 1 0 1 2 2 3 4 4 4 3 3 3 3 2 3 2 1 2 2 3 2 1 3 3 3 2 3 3 4 4 4
3 3 3 3 3 3 4 5 5 3 2 1 1 2 2 2 2 2 3 4 3 3 3 3 3 2 2 3 2 2 2 2 2 2 0 2 3 2 2 2 3 3 4
1 2 3 4 3 3 4 4 5 4 3 3 2 1 1 1 1 1 2 2 3 2 3 3 3 3 2 2 2 2 2 2 2 2 2 1 1 2 2 2 2 3 3
Wind_Direction
293 299 341 35 43 47 45 47 52 60 63 65 69 69 70 70 72 71 68 68 69 74 78 83 87 92 94 95 95 95 95 95 91 88 87 88 97 105 107 108 107 101 107
243 321 22 51 53 51 51 54 56 61 66 69 70 70 71 71 70 71 71 71 73 75 77 82 85 93 94 94 95 95 94 92 90 86 83 85 95 101 105 105 104 102 102
122 11 41 61 58 53 54 59 59 61 66 71 72 72 72 71 69 69 71 72 73 74 77 80 84 89 93 96 95 94 93 89 85 82 77 73 88 98 101 102 101 100 99
126 59 52 67 63 58 56 60 61 62 66 71 72 73 72 70 68 68 71 73 73 74 76 79 80 88 95 95 95 92 90 86 83 79 68 66 78 96 100 100 100 98 96
103 72 59 75 67 61 57 59 64 64 66 70 72 74 73 71 69 69 73 74 75 76 76 74 73 86 99 96 96 93 91 85 82 72 64 62 69 90 96 98 99 97 95
101 70 68 77 69 63 59 62 66 66 68 70 72 74 74 74 72 70 73 73 76 78 77 75 74 85 94 94 93 93 90 87 80 69 65 65 69 84 90 93 94 94 92
115 45 52 73 68 62 58 62 65 66 67 67 70 74 75 76 74 72 75 76 78 77 78 77 76 81 86 89 91 92 90 88 79 71 67 70 75 82 86 90 90 89 88
118 58 35 59 64 61 57 64 65 66 68 68 69 73 75 75 75 74 77 80 79 80 80 79 79 81 82 85 88 89 88 86 80 74 67 69 78 81 81 82 85 85 82
87 65 30 25 35 48 51 59 66 65 65 66 66 69 71 72 74 74 75 79 80 83 85 84 83 82 81 81 84 84 83 82 73 71 74 73 80 81 81 80 81 81 80
67 50 27 25 29 29 35 51 60 64 63 62 64 66 67 65 70 73 74 79 81 84 86 85 85 82 79 79 80 80 77 74 67 66 69 78 81 80 79 78 78 78 79
74 4 19 22 24 28 37 44 47 53 56 57 58 64 62 54 59 66 74 78 79 82 83 85 83 80 77 74 75 75 69 66 66 63 67 78 83 81 79 78 78 78 77
223 267 311 341 12 27 33 44 44 51 56 61 61 61 62 58 59 63 67 72 74 77 78 80 79 77 72 68 68 66 62 61 61 60 68 75 81 82 81 79 78 78 77
211 250 224 239 36 50 42 51 50 52 56 60 62 67 73 68 61 57 56 56 62 67 69 70 70 71 73 71 68 64 60 58 54 52 60 70 77 82 82 80 78 79 78
197 227 234 168 109 76 73 66 76 70 67 67 70 76 81 74 66 62 63 59 63 71 75 74 76 74 72 69 69 66 61 59 54 48 53 64 71 76 79 79 75 76 77
198 218 216 168 164 124 89 72 91 92 92 89 84 80 88 87 76 73 69 68 71 79 82 81 79 74 71 68 67 67 62 59 57 53 49 56 62 66 70 72 71 70 69
196 203 199 171 168 131 114 111 108 99 94 90 88 90 100 101 98 90 79 75 74 80 84 85 82 78 71 70 64 64 63 60 56 54 50 49 51 55 63 68 68 65 64
182 176 175 166 142 132 125 117 104 100 99 97 89 93 105 110 110 104 94 89 89 91 89 87 82 79 73 69 61 60 63 61 58 52 50 47 43 46 51 57 62 60 60
167 162 170 159 137 132 117 104 97 96 100 97 93 96 104 108 108 108 100 96 102 100 97 90 83 80 71 65 59 50 53 55 55 55 53 48 46 43 42 46 52 54 54
166 160 151 136 134 131 112 96 90 88 86 91 99 106 108 113 117 114 107 108 110 102 97 101 81 90 88 75 68 55 45 44 44 53 51 47 47 45 42 41 42 42 47
149 143 139 128 117 108 92 77 64 66 56 70 88 107 116 126 129 119 113 111 112 105 95 95 93 76 84 85 79 61 45 43 45 45 43 44 42 43 45 43 37 33 39
138 143 152 146 134 119 107 106 95 80 49 38 50 81 107 126 132 126 124 118 116 115 120 118 108 90 77 82 80 53 32 41 45 37 38 42 35 38 46 42 40 39 34
167 165 162 165 156 158 153 141 128 115 89 66 40 60 76 112 134 139 140 134 127 119 116 123 118 107 93 74 102 93 37 14 18 25 29 39 25 29 38 37 40 40 39
178 181 177 179 167 157 131 105 84 64 46 32 25 24 26 99 132 144 148 142 142 143 153 161 150 135 144 90 82 131 133 179 341 357 13 26 23 26 22 28 34 35 39
200 189 173 169 159 147 137 134 130 130 145 222 234 242 28 72 104 139 151 146 150 153 161 179 166 150 145 153 91 64 121 148 140 15 348 1 16 22 11 20 24 25 33
183 172 172 158 152 149 147 149 142 130 143 106 74 73 50 39 75 112 144 152 162 168 170 170 161 162 159 160 159 137 97 77 107 146 249 330 353 352 2 7 14 12 13
146 150 153 151 154 154 148 148 148 145 136 118 105 96 49 25 26 56 127 155 175 177 179 182 178 176 176 167 167 161 158 154 164 153 175 245 314 325 351 8 7 358 357
Height
1514 1513 1512 1511 1511 1510 1509 1508 1507 1506 1506 1506 1505 1505 1504 1504 1503 1502 1502 1501 1500 1498 1498 1498 1499 1500 1501 1502 1504 1505 1506 1507 1508 1509 1510 1509 1509 1510 1512 1514 1515 1516 1518
1515 1514 1513 1512 1512 1511 1510 1509 1509 1508 1507 1507 1507 1506 1506 1505 1505 1504 1503 1503 1502 1501 1501 1501 1501 1502 1503 1504 1505 1506 1508 1509 1510 1511 1511 1512 1512 1513 1514 1515 1517 1518 1519
1516 1515 1514 1514 1513 1512 1512 1511 1510 1509 1509 1509 1508 1508 1507 1507 1506 1506 1505 1505 1504 1504 1503 1503 1503 1504 1504 1505 1507 1508 1509 1510 1511 1512 1513 1513 1514 1515 1516 1517 1518 1519 1520
1517 1516 1515 1515 1514 1513 1513 1512 1512 1511 1511 1510 1510 1509 1509 1508 1508 1508 1507 1507 1506 1505 1505 1505 1504 1503 1504 1506 1508 1509 1510 1511 1513 1513 1514 1515 1516 1517 1518 1518 1519 1520 1521
1518 1517 1517 1516 1515 1515 1514 1514 1513 1513 1512 1512 1511 1511 1511 1510 1510 1510 1509 1509 1508 1507 1507 1505 1502 1498 1502 1506 1509 1510 1512 1513 1514 1515 1516 1517 1517 1518 1519 1520 1521 1522 1522
1519 1518 1518 1517 1517 1516 1516 1515 1514 1514 1514 1514 1513 1513 1512 1512 1512 1511 1511 1511 1510 1509 1508 1506 1503 1498 1501 1507 1510 1512 1513 1515 1516 1517 1517 1518 1519 1520 1520 1521 1522 1523 1524
1520 1520 1519 1519 1518 1517 1517 1516 1516 1516 1516 1515 1515 1515 1514 1514 1514 1513 1513 1513 1512 1512 1511 1510 1507 1506 1507 1511 1513 1514 1516 1517 1518 1519 1519 1520 1521 1521 1522 1522 1523 1524 1525
1522 1521 1521 1520 1520 1519 1518 1518 1518 1517 1517 1517 1517 1516 1516 1516 1516 1515 1515 1515 1515 1514 1514 1513 1512 1512 1513 1515 1516 1517 1518 1519 1520 1520 1521 1522 1522 1523 1523 1524 1524 1525 1526
1523 1522 1522 1521 1521 1521 1520 1520 1519 1519 1519 1519 1519 1518 1518 1518 1518 1517 1517 1517 1517 1517 1516 1516 1516 1516 1517 1518 1519 1519 1520 1521 1522 1522 1523 1523 1524 1524 1525 1525 1525 1526 1527
1524 1524 1523 1523 1523 1522 1522 1521 1521 1521 1521 1520 1520 1520 1520 1520 1520 1519 1519 1519 1519 1519 1519 1519 1519 1520 1520 1520 1521 1521 1522 1523 1524 1524 1525 1525 1526 1526 1526 1526 1527 1527 1528
1525 1525 1525 1524 1524 1524 1523 1523 1523 1522 1522 1522 1522 1522 1522 1522 1522 1522 1521 1522 1521 1521 1522 1522 1522 1522 1522 1523 1523 1524 1524 1525 1525 1526 1526 1527 1527 1527 1528 1528 1528 1528 1529
1526 1526 1526 1525 1525 1525 1525 1525 1524 1524 1524 1524 1524 1524 1524 1524 1524 1523 1523 1524 1524 1524 1524 1524 1524 1525 1525 1525 1525 1526 1526 1527 1527 1527 1528 1528 1528 1529 1529 1529 1529 1529 1529
1527 1527 1527 1527 1527 1526 1526 1526 1526 1526 1526 1526 1526 1526 1526 1526 1526 1526 1525 1526 1526 1526 1526 1526 1527 1527 1527 1527 1527 1528 1528 1529 1529 1529 1530 1530 1530 1530 1530 1530 1530 1530 1530
1527 1527 1528 1528 1528 1528 1528 1527 1527 1527 1528 1528 1528 1528 1528 1527 1528 1528 1528 1528 1528 1528 1528 1529 1529 1529 1529 1529 1530 1530 1530 1530 1531 1531 1531 1531 1531 1531 1531 1531 1531 1531 1531
1527 1528 1528 1529 1529 1529 1529 1529 1529 1529 1529 1529 1529 1529 1529 1529 1529 1529 1530 1530 1530 1530 1530 1530 1531 1531 1531 1531 1531 1532 1532 1532 1532 1532 1532 1532 1532 1532 1532 1532 1532 1532 1531
1528 1528 1529 1529 1530 1530 1530 1530 1530 1530 1531 1531 1531 1531 1531 1531 1531 1531 1531 1532 1532 1532 1532 1532 1533 1533 1533 1533 1533 1533 1534 1534 1534 1534 1534 1534 1534 1533 1533 1533 1533 1533 1532
1528 1529 1529 1530 1530 1530 1531 1531 1531 1531 1532 1532 1532 1532 1532 1533 1533 1533 1533 1533 1533 1534 1534 1534 1534 1534 1534 1535 1535 1535 1535 1535 1536 1536 1536 1535 1535 1535 1535 1534 1534 1533 1533
1528 1529 1529 1530 1530 1531 1531 1532 1532 1532 1532 1533 1533 1533 1534 1534 1534 1534 1534 1534 1535 1535 1535 1536 1536 1536 1536 1536 1536 1536 1537 1537 1537 1537 1537 1537 1537 1536 1536 1535 1535 1535 1534
1528 1529 1529 1530 1531 1531 1532 1532 1533 1533 1533 1534 1534 1534 1535 1535 1535 1535 1536 1536 1536 1537 1537 1537 1537 1537 1537 1537 1537 1538 1538 1538 1538 1538 1538 1538 1538 1537 1537 1536 1536 1535 1535
1527 1528 1529 1530 1531 1531 1532 1532 1533 1533 1534 1534 1535 1535 1535 1536 1536 1536 1537 1537 1537 1538 1538 1538 1538 1539 1539 1539 1539 1539 1539 1539 1539 1539 1539 1539 1539 1538 1538 1537 1536 1536 1535
1527 1528 1528 1529 1530 1531 1531 1532 1533 1533 1534 1535 1536 1536 1536 1536 1537 1537 1537 1538 1538 1538 1539 1539 1539 1539 1539 1540 1540 1540 1540 1540 1540 1540 1540 1540 1539 1539 1538 1537 1537 1536 1536
1525 1526 1527 1528 1529 1530 1531 1532 1533 1534 1535 1535 1536 1536 1536 1537 1537 1537 1538 1538 1538 1539 1539 1539 1540 1540 1540 1540 1540 1540 1540 1542 1540 1540 1540 1540 1540 1539 1539 1538 1537 1537 1536
1524 1525 1526 1527 1528 1529 1530 1531 1532 1533 1534 1535 1535 1536 1536 1537 1537 1538 1538 1538 1539 1539 1539 1540 1540 1540 1540 1541 1541 1541 1541 1541 1541 1541 1540 1540 1540 1540 1539 1539 1538 1537 1537
1522 1524 1525 1526 1527 1528 1529 1530 1531 1532 1533 1534 1535 1535 1536 1537 1537 1538 1538 1538 1539 1539 1539 1540 1540 1540 1540 1540 1540 1540 1541 1541 1541 1541 1541 1541 1540 1540 1540 1539 1539 1538 1537
1521 1522 1524 1525 1526 1527 1528 1529 1530 1531 1532 1533 1534 1535 1536 1536 1537 1537 1538 1538 1539 1539 1539 1539 1540 1540 1540 1540 1540 1540 1540 1540 1540 1541 1540 1541 1540 1540 1540 1539 1539 1539 1538
1520 1521 1523 1524 1525 1526 1527 1528 1529 1530 1531 1532 1533 1534 1535 1536 1536 1537 1537 1538 1538 1538 1539 1539 1539 1539 1539 1539 1539 1539 1539 1539 1539 1540 1539 1539 1539 1540 1540 1540 1539 1539 1539